Regional Weather Roundup
Issued by NWS

Home | Current Version | Previous Version | Graphics & Text | Print | Product List | Glossary On
Versions: 1 2 3 4 5 6 7 8 9 10 11 12 13 14 15 16 17 18 19 20 21 22 23 24 25 26 27 28 29 30 31 32 33 34 35 36 37 38 39 40 41 42 43 44 45 46 47 48 49 50
000
ASUS43 KMPX 211501
RWRMN
WEATHER ROUNDUP FOR MINNESOTA
NATIONAL WEATHER SERVICE TWIN CITIES/CHANHASSEN MN
900 AM CST TUE FEB 21 2017


NOTE: "FAIR" INDICATES FEW OR NO CLOUDS BELOW 12,000 FEET WITH NO
SIGNIFICANT WEATHER AND/OR OBSTRUCTIONS TO VISIBILITY. N/A MEANS
CURRENT SKY AND/OR WEATHER CONDITIONS ARE NOT AVAILABLE.

MNZ060>063-068>070-211600-
   Twin Cities Metro

CITY           SKY/WX    TMP DP  RH WIND       PRES   REMARKS
TWIN CITIES    FOG       33  31  92 SE7       29.89F VSB 1/8 WCI  27
ST PAUL        FOG       33  33 100 SE8       29.91S VSB<1/4 WCI  26
CRYSTAL        FOG      N/A N/A N/A S7        29.86F VSB 1/4
BLAINE         FOG       37  37 100 SE5       29.88S VSB 1/4
LAKEVILLE      FOG       34  34 100 CALM      29.89S VSB 1/4
EDEN PRAIRIE   FOG       33  33 100 SE3       29.87F VSB 1/2
SOUTH ST PAUL  FOG       33  33 100 CALM      29.90S VSB<1/4
LAKE ELMO      FOG       34  34 100 S6        29.90S VSB<1/4 WCI  29
$$
MNZ001>005-007-008-013>017-022>024-027-028-211600-
   Northwest Minnesota

CITY           SKY/WX    TMP DP  RH WIND       PRES   REMARKS
BEMIDJI        CLOUDY    32  32 100 E5        29.74F FOG     WCI  27
HALLOCK        CLOUDY    34  32  93 E6        29.72F FOG     WCI  29
ROSEAU         CLOUDY    32  27  80 S5        29.74F HAZE    WCI  27
WARROAD        CLOUDY    32  28  86 S5        29.75F FOG     WCI  27
THIEF RVR FALL SUNNY     34  33  96 E8        29.72F FOG     WCI  27
CROOKSTON      SUNNY     34  34 100 SE5       29.72S FOG     WCI  30
FOSSTON        SUNNY     34  32  93 CALM      29.72F FOG
DETROIT LAKES  SUNNY     34  32  93 SE9       29.73S FOG     WCI  26
MOORHEAD       CLOUDY    39  32  75 S13       29.70S
PARK RAPIDS    MOSUNNY   33  31  92 SE8       29.74F FOG     WCI  26
MAHNOMEN       CLOUDY    36  32  84 SE8       29.71S
$$
MNZ006-009>011-018-025>026-211600-
   North Central Minnesota

CITY           SKY/WX    TMP DP  RH WIND       PRES   REMARKS
BAUDETTE       CLOUDY    32  31  96 S3        29.76R
FLAG ISLAND    FOG       30  30 100 S8        29.74S VSB 1/2 WCI  23
INTL FALLS     CLOUDY    33  31  92 VRB7      29.77R FOG     WCI  27
WASKISH        FOG       34  34 100 CALM      29.76S VSB 1/4
LONGVILLE      FOG       32  32 100 SE6       29.77F VSB 1/2 WCI  26
GRAND RAPIDS   FOG       34  33  96 S6        29.80F VSB 1/4 WCI  29
CRANE LAKE     CLOUDY    32  30  93 SW3       29.80S
ORR            CLOUDY    34  30  86 SW3       29.76F FOG
COOK           CLOUDY    34  32  93 SW6       29.78F FOG     WCI  29
WALKER         FAIR      32  32  99 CALM      29.74F FOG
$$
MNZ012-019>021-037-211600-
   Northeast Minnesota

CITY           SKY/WX    TMP DP  RH WIND       PRES   REMARKS
DULUTH         FOG       34  34 100 W12       29.80F VSB 1/4 WCI  25
ELY            CLOUDY    34  32  93 W8        29.77S WCI  27
HIBBING        CLOUDY    32  32 100 CALM      29.78F FOG
EVELETH        CLOUDY    34  33  96 SW6       29.79F FOG     WCI  29
DULUTH HARBOR  CLOUDY    36  34  93 SW6       29.84S
TWO HARBORS    CLOUDY    37  34  87 W6        29.78F
SILVER BAY     CLOUDY    37  34  87 CALM      29.77S
GRAND MARAIS     N/A     39  33  79 W13       29.77R
G MARAIS ARPRT MOSUNNY   34  27  75 W9G17     29.74R WCI  26
$$
MNZ029>031-032-039>041-046>048-054>057-064-211600-
   West Central Minnesota

CITY           SKY/WX    TMP DP  RH WIND       PRES   REMARKS
FERGUS FALLS   MOSUNNY   39  32  75 SE8       29.77R
WHEATON        CLOUDY    39  34  81 S13G18    29.73S
MORRIS         SUNNY     37  34  87 SE10      29.73F
ALEXANDRIA     SUNNY     39  32  76 S13       29.76F
ELBOW LAKE     FAIR      38  34  84 S16       29.71F
WADENA         SUNNY     34  34 100 SE5       29.76S FOG     WCI  30
GLENWOOD       SUNNY     39  34  81 S15       29.77F
APPLETON       SUNNY     41  36  81 SE9       29.75F
BENSON         SUNNY     41  32  70 S12       29.78F
ORTONVILLE     SUNNY     37  34  87 CALM      29.73F
WILLMAR        FAIR      39  37  93 S7        29.82S
$$
MNZ033>034-036-042>043-049>051-058-059-211600-
   Central Minnesota

CITY           SKY/WX    TMP DP  RH WIND       PRES   REMARKS
ST CLOUD       FOG       31  31 100 SE7       29.84S VSB 1/4 WCI  24
SAUK CENTRE    FAIR      37  33  85 SE8       29.79F
PAYNESVILLE    SUNNY     37  36  97 S9        29.82F
AITKIN         FOG       34  30  86 S5        29.80F VSB 1/2 WCI  30
PINE RIVER     FOG       30  30 100 SE7       29.82S VSB<1/4 WCI  23
BRAINERD       FOG       31  31 100 SE6       29.81F VSB 1/4 WCI  25
STAPLES        SUNNY     30  30 100 SE6       29.78S FOG     WCI  24
LONG PRAIRIE   FAIR      34  34 100 SE8       29.78F WCI  27
LITTLE FALLS   FOG       32  32 100 SE6       29.82F VSB 3/4 WCI  26
LITCHFIELD     SUNNY     37  37 100 SE6       29.84F
BUFFALO        SUNNY     35  34  96 SE3       29.86F
MAPLE LAKE     SUNNY     36  36 100 S6        29.85F FOG
HUTCHINSON     CLOUDY    38  37  93 SE5       29.85S
$$
MNZ037-044-045-052-053-211600-
   East Central Minnesota

CITY           SKY/WX    TMP DP  RH WIND       PRES   REMARKS
PRINCETON      SNOW      34  32  93 SE3       29.86S VSB<1/4
MORA           FOG       32  32 100 SW6       29.88R VSB<1/4 WCI  26
CAMBRIDGE      SNOW      34  34 100 S7        29.86R VSB<1/4 WCI  28
RUSH CITY      FOG       32  32 100 S5        29.89R VSB<1/4 WCI  27
MOOSE LAKE     FOG       32  32 100 S5        29.83R VSB 1/4 WCI  27
HINCKLEY       FOG       32  32 100 S5        29.86S VSB<1/4 WCI  27
CLOQUET        FOG       34  32  93 SW7       29.81S VSB 1/4 WCI  28
MCGREGOR       CLOUDY    32  32 100 S6        29.82S VSB 1/4 WCI  26
$$
MNZ071>073-080-081-089-090-097-098-211600-
   Southwest Minnesota

CITY           SKY/WX    TMP DP  RH WIND       PRES   REMARKS
MONTEVIDEO     SUNNY     43  37  81 SW12G17   29.78F
GRANITE FALLS  SUNNY     41  37  86 S13       29.80F
CANBY          SUNNY     48  35  59 SW17G29   29.77F
MARSHALL       SUNNY     48  37  65 SW23      29.78S
REDWOOD FALLS  SUNNY     41  35  79 S10       29.81F
OLIVIA         SUNNY     39  36  87 S13       29.81F
PIPESTONE      SUNNY     45  34  65 SW17      29.81F
WINDOM         SUNNY     43  37  81 S10       29.86S
WORTHINGTON    SUNNY     46  36  68 S22       29.86F
JACKSON        SUNNY     41  36  81 S13       29.89S
TRACY          SUNNY     49  38  66 SW22G29   29.81F
SLAYTON        SUNNY     43  36  78 S17G23    29.83F
$$
MNZ065>067-074>077-082>085-091>093-211600-
   South Central Minnesota

CITY           SKY/WX    TMP DP  RH WIND       PRES   REMARKS
MANKATO          N/A     37  35  92 S10       29.89S
NEW ULM        SUNNY     37  36  93 S7        29.87S
ST JAMES       SUNNY     43  37  81 S12       29.89S
FAIRMONT       SUNNY     39  37  92 S8        29.91S
GLENCOE        SUNNY     39  37  93 S6        29.86S
FARIBAULT      SUNNY     37  37 100 S7        29.90S FOG
OWATONNA       SUNNY     39  36  87 S6        29.91R
WASECA         SUNNY     36  36 100 S8        29.91S
ALBERT LEA     SUNNY     39  39 100 S3        29.91F FOG
$$
MNZ078>079-086>088-094>096-211600-
   Southeast Minnesota

CITY           SKY/WX    TMP DP  RH WIND       PRES   REMARKS
ROCHESTER      SUNNY     35  35 100 S8        29.91F FOG     WCI  29
RED WING       FOG       34  34 100 CALM      29.92R VSB 1/4
STANTON        SUNNY     38  37  95 S3        29.89F FOG
DODGE CENTER   SUNNY     37  37 100 S6        29.90F FOG
WINONA         SUNNY     37  37 100 CALM      29.94S
AUSTIN         FOG       36  34  93 S3        29.92F VSB 1/4
PRESTON        FOG       33  32  98 CALM      29.93S VSB<1/4
$$
ABBREVIATIONS USED IN REMARKS
   TC - TEMPERATURES IN CELSIUS
  WCI - WIND CHILL INDEX
   HX - HEAT INDEX
  VSB - VISIBILITY
$$




USA.gov is the U.S. government's official web portal to all federal, state and local government web resources and services.